Location: Ferchesar
(52.6477°N, 12.4298°E)
Time: 10:05:02
(UTC+01:00)

AO-73 - Pass Details

Date: 30 October 2021
Orbit: 581 x 661 km, 97.6° (Epoch: 28 November)

Event Time Altitude Azimuth Distance (km) Brightness Sun altitude
Rises 06:10:41 0° 12° (NNE) 2,833 ? -17.5°
Reaches altitude 10° 06:12:51 10° 11° (N) 1,934 ? -17.2°
Maximum altitude 06:17:02 74° 286° (WNW) 629 ? -16.5°
Drops below altitude 10° 06:21:16 10° 202° (SSW) 1,959 ? -15.9°
Sets 06:23:28 0° 201° (SSW) 2,872 ? -15.6°
